Torna al catalogo

STARLINK-32150

AttivoComunicazioniVLEO
NORAD 60294·PAYLOAD·🇺🇸 United States

Lanciato Jul 28, 2024 da Cape Canaveral Space Force Station

Loading…

Prossimi Passaggi (prossime 24 ore)

TLE

AggiornatoSource: CelesTrak SupGP

Epoca: Sep 14, 2026, 21:19 UTC

1 60294C 24132S   26257.88868056  .00052257  00000+0  16805-2 0  2573
2 60294  53.1581 252.6130 0001395  92.6812 202.8705 15.31674224    11

Traccia STARLINK-32150 in tempo reale con AllMySat

Download on the App Store